Temp
3 3 3 3 3 3 3 3 4 4 3 3 4 4 4 4 4 4 4 4 4 4 4 4 5 5 5 5 5 6 6 6 6 6 7 7 7 7 7 7 7 7 7 7 7 7 8 8 8 8 8 8 8 8 8 8 8 8 8 8 8 8 8 8 8 8 9 9 9
2 2 2 3 3 3 3 3 3 3 3 3 3 3 3 3 3 3 3 3 3 3 3 4 4 4 4 4 4 4 5 5 5 6 6 6 6 6 6 6 6 6 7 7 7 7 7 7 7 7 7 7 7 7 7 7 7 7 7 7 7 7 7 7 7 8 8 8 9
2 2 2 2 2 2 2 3 2 2 2 2 2 2 3 3 3 3 3 3 2 2 3 3 2 2 2 2 3 3 3 4 4 4 5 5 5 5 5 5 5 6 6 6 6 6 6 6 6 6 6 6 6 6 6 6 6 6 6 6 6 6 7 7 7 7 7 8 8
1 1 1 1 1 2 2 2 2 2 2 2 2 2 2 2 2 2 2 2 2 2 2 1 1 1 1 1 2 2 2 2 3 3 3 3 3 4 4 4 4 4 4 4 5 5 5 5 5 5 5 5 5 5 5 5 5 5 5 5 5 6 6 6 6 6 7 7 7
1 1 1 1 1 1 1 1 1 1 1 1 1 1 1 1 1 1 1 1 1 1 1 1 1 1 1 1 1 1 1 1 1 1 2 2 2 2 2 2 2 3 3 3 3 3 3 4 3 4 4 4 4 4 4 4 4 4 4 4 5 5 5 5 5 6 6 6 6
0 0 0 0 0 0 0 0 0 0 0 -0 0 0 0 0 0 1 1 1 1 1 0 0 0 0 0 0 0 1 1 1 1 1 1 1 1 1 1 1 1 2 2 2 2 2 2 3 3 3 3 3 3 3 3 3 3 3 4 4 4 4 4 4 4 5 5 5 5
-0 -0 -0 -0 -0 -0 -0 -0 -0 -0 -0 -0 0 0 0 0 0 0 0 0 0 0 0 0 0 0 0 0 1 1 1 1 1 1 1 1 0 1 1 1 1 2 2 1 2 2 2 2 2 3 3 3 3 3 3 3 3 3 3 3 3 3 3 3 3 4 4 4 4
-1 -1 -0 -0 -0 -0 -0 -0 -0 -0 -0 0 0 0 0 0 0 -0 -0 -0 0 0 -0 -0 -0 0 0 1 1 1 1 1 1 1 1 1 1 1 1 1 2 2 2 2 2 2 2 2 2 2 2 2 2 2 2 2 3 3 2 3 3 3 3 3 3 3 3 3 4
-1 -1 -1 -1 -1 -1 -1 -1 -1 -1 -0 -0 -0 -0 -0 -0 -0 -0 -0 -0 -0 -0 -0 -0 -0 -0 0 0 1 1 1 1 1 1 0 0 1 1 1 1 2 2 2 2 2 2 2 2 2 2 2 2 2 2 2 2 2 2 2 2 2 2 2 2 2 2 3 3 3
-2 -2 -2 -2 -2 -2 -1 -1 -1 -1 -1 -1 -1 -1 -1 -1 -1 -1 -0 -1 -1 -0 -0 -0 -0 -0 -0 0 0 1 1 1 0 0 0 0 0 0 0 1 1 1 1 1 1 2 2 2 2 2 2 2 2 2 2 2 2 2 2 2 2 2 2 2 2 2 2 3 3
-2 -2 -2 -2 -2 -2 -2 -1 -1 -1 -1 -1 -1 -1 -1 -1 -1 -1 -1 -1 -1 -1 -0 -1 -1 -0 -0 0 0 0 0 0 0 0 -0 -0 -0 -0 -0 0 0 1 1 1 1 1 1 2 2 2 2 2 2 2 2 2 2 2 2 2 2 2 2 2 2 2 2 2 3
-2 -2 -2 -2 -2 -2 -2 -1 -1 -1 -1 -1 -1 -1 -1 -1 -1 -1 -1 -1 -1 -0 -0 -1 -1 -0 -0 -0 -0 0 0 0 0 0 -0 -0 -0 -1 -0 -0 -0 0 0 0 1 1 1 1 1 1 2 2 2 2 2 2 2 2 2 2 2 2 2 2 2 2 2 2 3
-2 -2 -2 -2 -2 -2 -1 -1 -1 -1 -1 -1 -1 -1 -1 -1 -1 -1 -1 -1 -1 -1 -1 -1 -1 -1 -1 -1 -1 -0 -0 -0 0 0 -0 -0 -1 -1 -1 -1 -1 -0 -0 -0 0 0 1 1 1 1 1 1 1 1 1 2 2 2 2 2 2 2 2 2 2 2 2 2 3
-2 -2 -2 -1 -1 -1 -1 -1 -1 -1 -1 -1 -1 -1 -1 -1 -2 -1 -1 -1 -1 -1 -1 -1 -1 -1 -1 -1 -1 -1 -1 -0 -0 -0 -0 -1 -1 -1 -1 -1 -1 -1 -1 -0 -0 0 0 1 1 1 1 1 1 1 1 1 1 1 2 2 2 2 1 1 1 2 2 2 2
-2 -2 -1 -1 -1 -1 -1 -1 -1 -1 -1 -1 -1 -1 -1 -1 -1 -1 -1 -1 -1 -1 -1 -1 -1 -1 -1 -1 -1 -1 -1 -1 -1 -0 -1 -1 -1 -1 -1 -1 -1 -1 -1 -1 -0 -0 0 0 1 1 1 1 1 1 1 1 1 1 1 1 1 1 1 1 1 1 2 2 2
-1 -1 -1 -1 -1 -1 -1 -1 -1 -1 -1 -1 -1 -1 -1 -1 -1 -1 -1 -1 -1 -1 -1 -2 -2 -2 -2 -2 -1 -1 -1 -1 -1 -1 -1 -1 -1 -1 -1 -1 -1 -1 -1 -1 -1 -0 -0 0 0 0 1 1 1 1 1 1 1 1 1 1 1 1 1 1 1 1 1 1 1
-1 -1 -1 -1 -1 -1 -1 -1 -1 -1 -1 -1 -1 -1 -1 -1 -1 -1 -1 -1 -1 -1 -1 -2 -2 -2 -2 -2 -2 -1 -1 -1 -1 -1 -1 -1 -1 -1 -1 -1 -1 -1 -1 -1 -1 -0 -0 -0 -0 0 0 0 1 1 1 1 1 1 1 1 1 1 1 1 1 1 1 1 1
-1 -1 -1 -1 -1 -1 -1 -1 -1 -1 -1 -1 -1 -1 -1 -1 -1 -1 -1 -1 -2 -2 -2 -2 -2 -2 -2 -2 -2 -1 -1 -1 -1 -1 -1 -1 -1 -1 -1 -1 -1 -1 -1 -1 -1 -0 -0 -0 -0 -0 0 0 0 0 0 1 1 0 0 0 1 1 1 1 1 1 1 1 1
-1 -1 -1 -1 -1 -1 -1 -1 -1 -1 -1 -1 -1 -1 -1 -1 -1 -1 -1 -2 -2 -2 -2 -2 -2 -2 -2 -2 -1 -1 -1 -1 -1 -1 -1 -1 -1 -1 -1 -1 -1 -1 -1 -1 -1 -1 -1 -1 -0 -0 -0 0 0 0 0 0 0 0 0 0 0 0 0 0 1 1 1 1 0
-1 -1 -1 -1 -1 -1 -1 -1 -1 -1 -1 -1 -1 -1 -1 -1 -1 -1 -1 -2 -2 -2 -2 -2 -2 -2 -2 -2 -2 -1 -1 -1 -1 -1 -1 -1 -1 -1 -1 -1 -1 -1 -1 -1 -1 -1 -1 -1 -1 -0 -0 -0 -0 -0 -0 -0 -0 -0 -0 0 0 0 0 0 0 0 0 0 0
-1 -1 -1 -1 -1 -1 -1 -1 -1 -1 -1 -1 -1 -1 -1 -1 -1 -1 -1 -2 -2 -2 -2 -2 -2 -2 -2 -2 -2 -1 -1 -1 -1 -1 -1 -1 -1 -1 -1 -1 -1 -1 -1 -1 -1 -1 -1 -1 -1 -1 -1 -1 -1 -1 -1 -0 -0 -0 -0 -0 -0 -0 -0 -0 -0 -0 -0 -0 -0
-1 -1 -1 -1 -1 -1 -1 -1 -1 -1 -1 -1 -1 -1 -1 -1 -1 -1 -1 -2 -2 -2 -2 -2 -2 -2 -2 -2 -2 -2 -1 -1 -1 -1 -1 -1 -1 -1 -1 -1 -1 -1 -1 -1 -1 -1 -1 -1 -1 -1 -1 -1 -1 -1 -1 -1 -1 -1 -1 -1 -1 -1 -1 -1 -1 -1 -1 -0 -1
-1 -1 -1 -1 -1 -1 -1 -1 -1 -1 -1 -1 -1 -1 -1 -1 -1 -1 -2 -2 -2 -2 -2 -2 -2 -2 -2 -2 -2 -2 -2 -1 -1 -1 -1 -1 -1 -1 -1 -1 -1 -1 -1 -1 -1 -1 -1 -1 -1 -1 -1 -2 -2 -2 -1 -1 -1 -1 -1 -1 -1 -1 -1 -1 -1 -1 -1 -1 -1
-1 -1 -1 -1 -1 -1 -1 -1 -1 -1 -1 -1 -1 -2 -2 -2 -2 -2 -2 -2 -2 -2 -2 -1 -1 -1 -1 -2 -2 -2 -1 -1 -1 -1 -1 -0 -0 0 0 -0 -1 -1 -1 -2 -2 -1 -1 -1 -2 -2 -2 -2 -2 -2 -2 -1 -1 -1 -1 -1 -1 -1 -1 -1 -1 -1 -1 -1 -1
-1 -1 -1 -1 -1 -1 -1 -1 -1 -1 -1 -2 -2 -2 -2 -2 -2 -2 -2 -2 -2 -2 -2 -2 -1 -1 -2 -2 -2 -2 -1 -1 -1 -1 -1 -1 -1 -1 -1 -2 -3 -3 -3 -3 -3 -3 -2 -2 -2 -2 -2 -2 -2 -2 -2 -1 -1 -1 -1 -1 -1 -1 -1 -1 -1 -1 -1 -1 -1
-1 -1 -1 -1 -1 -1 -1 -1 -1 -2 -2 -2 -2 -2 -2 -2 -2 -2 -2 -2 -2 -2 -2 -2 -2 -2 -2 -2 -2 -2 -2 -2 -2 -2 -2 -2 -2 -2 -3 -4 -5 -6 -5 -4 -3 -3 -3 -2 -2 -2 -2 -2 -2 -2 -2 -1 -1 -1 -1 -1 -1 -1 -1 -1 -1 -1 -1 -1 -1
-1 -1 -1 -1 -1 -1 -1 -2 -2 -2 -2 -2 -2 -2 -2 -2 -2 -2 -2 -2 -2 -2 -2 -2 -2 -2 -2 -2 -2 -2 -3 -3 -3 -3 -3 -3 -3 -4 -4 -4 -5 -6 -6 -4 -3 -3 -3 -3 -2 -2 -2 -2 -2 -2 -2 -1 -1 -1 -1 -1 -1 -1 -1 -1 -1 -1 -1 -1 -2
-1 -1 -1 -1 -1 -1 -2 -2 -2 -2 -2 -2 -2 -2 -2 -2 -2 -2 -2 -2 -2 -2 -2 -2 -2 -2 -2 -2 -2 -2 -3 -3 -3 -3 -4 -4 -4 -4 -4 -4 -5 -5 -5 -4 -3 -3 -3 -3 -2 -2 -2 -2 -2 -2 -2 -2 -2 -1 -1 -1 -1 -2 -2 -2 -2 -2 -2 -2 -2
-1 -1 -1 -1 -2 -2 -2 -2 -2 -2 -2 -2 -2 -2 -2 -2 -2 -2 -2 -2 -2 -2 -2 -2 -2 -2 -2 -2 -2 -2 -2 -3 -3 -3 -3 -4 -4 -3 -3 -4 -4 -5 -6 -5 -4 -3 -3 -3 -3 -2 -2 -3 -3 -2 -2 -2 -2 -2 -2 -2 -2 -2 -2 -2 -2 -2 -2 -3 -3
-2 -2 -2 -2 -2 -2 -2 -2 -2 -2 -2 -2 -2 -2 -2 -2 -2 -2 -2 -2 -2 -2 -2 -2 -2 -2 -2 -2 -2 -2 -3 -3 -3 -3 -3 -3 -4 -4 -4 -4 -4 -5 -6 -6 -5 -4 -3 -3 -3 -3 -3 -3 -3 -3 -2 -2 -2 -2 -2 -2 -2 -2 -2 -2 -2 -2 -3 -3 -3
-2 -2 -2 -2 -2 -2 -2 -2 -2 -2 -2 -2 -2 -2 -2 -2 -2 -2 -2 -2 -2 -2 -2 -2 -2 -2 -2 -2 -2 -2 -3 -3 -3 -3 -3 -3 -4 -4 -4 -4 -4 -4 -5 -6 -6 -4 -3 -3 -3 -3 -3 -3 -3 -3 -2 -2 -2 -2 -2 -2 -2 -2 -3 -3 -3 -3 -3 -3 -3
-2 -2 -2 -2 -2 -2 -2 -2 -2 -2 -2 -2 -2 -2 -2 -2 -2 -2 -2 -2 -2 -2 -2 -2 -2 -2 -2 -2 -2 -2 -2 -2 -3 -3 -3 -3 -4 -4 -4 -4 -4 -4 -5 -6 -6 -5 -4 -3 -3 -3 -3 -3 -3 -3 -2 -2 -2 -2 -2 -3 -3 -3 -3 -3 -3 -3 -3 -3 -3
-2 -2 -2 -2 -2 -2 -2 -2 -2 -2 -2 -2 -2 -2 -2 -2 -2 -2 -2 -2 -2 -2 -2 -2 -2 -2 -2 -2 -2 -2 -2 -2 -2 -2 -3 -3 -3 -3 -4 -4 -4 -4 -4 -6 -6 -5 -4 -3 -3 -3 -3 -3 -3 -3 -2 -2 -2 -3 -3 -3 -3 -3 -3 -3 -3 -3 -3 -3 -3
-2 -2 -2 -2 -2 -2 -2 -2 -2 -2 -2 -2 -2 -2 -2 -2 -2 -2 -2 -2 -2 -2 -2 -2 -2 -2 -2 -2 -2 -2 -2 -2 -2 -2 -2 -2 -3 -3 -4 -4 -4 -4 -4 -5 -6 -6 -5 -4 -3 -3 -4 -4 -3 -3 -2 -3 -3 -3 -3 -3 -3 -3 -3 -3 -3 -3 -3 -3 -3
-2 -2 -2 -2 -2 -2 -2 -2 -2 -2 -2 -2 -2 -2 -2 -2 -2 -2 -2 -2 -2 -2 -2 -2 -2 -2 -1 -1 -1 -1 -2 -2 -2 -2 -2 -2 -3 -3 -4 -4 -4 -4 -4 -6 -6 -7 -7 -6 -4 -4 -4 -4 -3 -3 -3 -3 -3 -3 -3 -3 -3 -3 -4 -4 -4 -4 -3 -3 -3
-2 -2 -2 -2 -2 -2 -2 -2 -2 -2 -2 -2 -2 -2 -2 -2 -2 -2 -2 -2 -2 -2 -2 -2 -2 -1 -1 -1 -1 -1 -1 -2 -2 -2 -2 -2 -3 -3 -4 -4 -5 -5 -5 -6 -7 -7 -7 -7 -6 -4 -4 -4 -4 -3 -3 -3 -3 -4 -4 -3 -3 -3 -3 -4 -4 -4 -3 -3 -3
-2 -2 -2 -2 -2 -2 -2 -2 -2 -2 -2 -2 -2 -2 -2 -2 -2 -2 -2 -2 -2 -2 -1 -1 -1 -1 -1 -1 -1 -1 -2 -2 -2 -2 -2 -3 -3 -4 -4 -5 -5 -5 -5 -6 -7 -7 -8 -8 -7 -5 -4 -4 -4 -3 -3 -3 -3 -4 -4 -3 -3 -3 -3 -3 -4 -4 -4 -3 -3
-2 -2 -2 -2 -2 -2 -2 -2 -2 -2 -2 -2 -2 -2 -2 -2 -2 -2 -2 -2 -2 -2 -1 -2 -1 -1 -1 -2 -2 -2 -2 -2 -2 -2 -3 -3 -4 -4 -5 -5 -6 -6 -6 -6 -7 -8 -8 -7 -7 -6 -4 -4 -4 -3 -3 -3 -3 -3 -3 -3 -3 -3 -3 -3 -3 -4 -4 -4 -4
-2 -2 -2 -2 -2 -2 -2 -2 -2 -2 -2 -2 -2 -2 -2 -2 -2 -2 -2 -2 -2 -2 -2 -2 -2 -2 -2 -2 -2 -2 -2 -3 -3 -3 -3 -4 -4 -4 -5 -5 -6 -6 -6 -6 -7 -7 -8 -7 -7 -6 -4 -4 -4 -4 -3 -3 -3 -3 -3 -3 -3 -3 -3 -3 -3 -3 -4 -4 -4
-2 -2 -2 -2 -2 -2 -2 -2 -2 -2 -2 -2 -2 -2 -2 -2 -2 -2 -2 -2 -2 -2 -2 -2 -2 -2 -2 -2 -2 -3 -3 -3 -3 -3 -4 -4 -4 -4 -5 -5 -5 -5 -5 -5 -6 -7 -8 -7 -7 -6 -5 -3 -3 -4 -3 -3 -3 -3 -3 -3 -3 -3 -3 -3 -3 -3 -4 -4 -4
-2 -2 -2 -2 -2 -2 -2 -2 -2 -2 -2 -2 -2 -2 -2 -2 -2 -2 -2 -2 -2 -2 -2 -2 -2 -2 -2 -3 -3 -3 -3 -3 -4 -3 -3 -4 -4 -4 -4 -5 -5 -5 -5 -4 -5 -7 -7 -7 -7 -7 -5 -3 -3 -3 -3 -3 -3 -3 -3 -3 -3 -3 -3 -3 -3 -4 -4 -4 -4
Height
1473 1473 1473 1473 1473 1473 1473 1473 1474 1474 1474 1474 1474 1474 1475 1475 1475 1475 1475 1475 1475 1475 1475 1476 1476 1476 1476 1476 1476 1476 1476 1476 1477 1477 1477 1477 1477 1477 1477 1477 1476 1476 1476 1476 1476 1476 1476 1475 1475 1475 1475 1475 1475 1475 1475 1475 1476 1476 1476 1476 1476 1476 1477 1477 1477 1477 1477 1478 1478
1474 1474 1474 1474 1474 1474 1474 1474 1474 1474 1474 1474 1474 1475 1475 1475 1475 1475 1475 1475 1475 1475 1475 1475 1475 1475 1475 1475 1476 1476 1476 1476 1476 1476 1476 1476 1476 1476 1476 1476 1475 1475 1475 1475 1475 1474 1474 1474 1474 1474 1474 1474 1474 1474 1474 1474 1474 1474 1474 1475 1475 1475 1475 1476 1476 1476 1476 1476 1476
1475 1475 1475 1474 1474 1474 1474 1474 1474 1475 1475 1475 1475 1475 1475 1475 1475 1475 1475 1475 1475 1475 1475 1475 1475 1475 1475 1475 1475 1475 1475 1475 1475 1475 1475 1475 1475 1475 1475 1475 1474 1474 1474 1474 1474 1473 1473 1473 1473 1473 1473 1472 1473 1473 1472 1472 1473 1473 1473 1473 1473 1474 1474 1474 1474 1474 1474 1474 1474
1476 1476 1476 1475 1475 1475 1475 1475 1475 1475 1475 1475 1475 1475 1475 1475 1475 1475 1475 1475 1475 1475 1475 1475 1475 1475 1475 1475 1475 1475 1475 1475 1475 1475 1475 1475 1475 1474 1474 1474 1474 1473 1473 1473 1473 1473 1472 1472 1472 1472 1472 1472 1472 1472 1472 1472 1472 1472 1472 1472 1472 1472 1472 1473 1473 1473 1473 1473 1473
1476 1476 1476 1476 1476 1476 1476 1476 1476 1475 1475 1475 1475 1475 1475 1475 1475 1475 1475 1475 1475 1475 1475 1476 1476 1476 1476 1476 1475 1475 1475 1475 1475 1475 1475 1475 1474 1474 1474 1474 1473 1473 1473 1472 1472 1472 1472 1472 1471 1471 1471 1471 1471 1471 1471 1471 1471 1471 1471 1471 1471 1471 1471 1472 1472 1472 1472 1472 1472
1477 1477 1477 1477 1477 1476 1476 1476 1476 1476 1476 1476 1476 1476 1476 1475 1476 1476 1476 1476 1476 1476 1476 1476 1476 1476 1476 1476 1476 1476 1475 1475 1475 1475 1475 1475 1474 1474 1474 1474 1473 1473 1473 1472 1472 1472 1472 1472 1471 1471 1471 1471 1471 1471 1471 1471 1471 1471 1471 1471 1471 1471 1471 1471 1471 1471 1471 1471 1471
1479 1478 1478 1478 1478 1477 1477 1477 1477 1477 1476 1476 1476 1476 1476 1476 1476 1476 1476 1476 1476 1476 1476 1476 1476 1476 1476 1476 1476 1476 1476 1476 1476 1475 1475 1475 1475 1474 1474 1474 1473 1473 1473 1472 1472 1472 1472 1472 1472 1471 1471 1471 1471 1471 1471 1471 1471 1471 1471 1471 1471 1471 1471 1471 1471 1471 1471 1471 1471
1480 1480 1480 1479 1479 1479 1478 1478 1478 1478 1478 1478 1478 1478 1478 1478 1478 1477 1477 1477 1477 1477 1477 1477 1477 1477 1477 1476 1476 1476 1476 1476 1476 1476 1476 1476 1475 1475 1474 1474 1474 1473 1473 1473 1473 1472 1472 1472 1472 1471 1471 1471 1471 1471 1471 1471 1471 1471 1471 1471 1471 1471 1471 1471 1471 1471 1471 1470 1470
1481 1481 1481 1481 1480 1480 1480 1479 1479 1479 1479 1479 1479 1479 1479 1479 1479 1478 1478 1478 1478 1478 1478 1478 1478 1478 1477 1477 1477 1477 1476 1476 1476 1476 1476 1476 1476 1475 1475 1475 1474 1474 1473 1473 1473 1472 1472 1472 1471 1471 1471 1471 1471 1471 1471 1471 1471 1471 1471 1471 1471 1471 1471 1471 1471 1471 1470 1470 1470
1482 1482 1482 1482 1481 1481 1481 1481 1481 1480 1480 1480 1479 1479 1479 1480 1479 1479 1479 1479 1479 1479 1479 1479 1479 1479 1478 1478 1478 1477 1477 1476 1476 1476 1476 1476 1476 1476 1475 1475 1475 1474 1474 1473 1473 1473 1472 1472 1472 1471 1471 1471 1471 1471 1472 1472 1472 1471 1471 1471 1471 1471 1471 1471 1471 1471 1470 1470 1469
1483 1483 1483 1483 1483 1483 1482 1482 1482 1481 1481 1481 1480 1480 1480 1480 1480 1480 1480 1480 1480 1479 1479 1479 1479 1479 1479 1479 1479 1478 1478 1477 1477 1476 1476 1476 1476 1476 1476 1476 1475 1475 1475 1474 1474 1473 1473 1472 1472 1471 1471 1471 1471 1472 1472 1472 1472 1472 1472 1472 1471 1471 1471 1471 1471 1470 1470 1469 1469
1485 1485 1485 1485 1484 1484 1484 1483 1483 1482 1482 1481 1481 1481 1481 1481 1480 1480 1480 1480 1480 1480 1480 1480 1480 1480 1480 1479 1479 1479 1479 1478 1477 1477 1477 1476 1476 1476 1476 1476 1476 1475 1475 1475 1474 1474 1473 1473 1472 1472 1472 1472 1472 1472 1472 1472 1472 1472 1472 1472 1472 1471 1471 1471 1471 1470 1470 1469 1469
1486 1486 1486 1486 1485 1485 1485 1484 1484 1483 1483 1482 1482 1482 1481 1481 1481 1481 1481 1481 1481 1481 1480 1481 1480 1480 1480 1480 1480 1480 1479 1479 1478 1478 1477 1477 1477 1476 1476 1476 1476 1476 1475 1475 1475 1474 1474 1473 1473 1472 1472 1472 1472 1472 1472 1472 1472 1472 1472 1472 1472 1471 1471 1471 1471 1470 1470 1469 1468
1486 1486 1486 1486 1486 1486 1486 1485 1485 1484 1484 1484 1483 1483 1483 1482 1482 1482 1482 1482 1481 1481 1481 1481 1481 1481 1481 1481 1481 1480 1480 1479 1479 1478 1478 1477 1477 1477 1476 1476 1476 1476 1475 1475 1475 1475 1474 1474 1473 1473 1473 1473 1473 1473 1473 1473 1473 1473 1472 1472 1472 1472 1471 1471 1471 1470 1470 1469 1468
1487 1487 1487 1487 1487 1487 1486 1486 1486 1485 1485 1485 1484 1484 1484 1483 1483 1483 1483 1482 1482 1482 1482 1482 1482 1481 1481 1481 1481 1481 1481 1480 1480 1479 1478 1478 1477 1477 1477 1476 1476 1476 1476 1476 1475 1475 1475 1474 1474 1474 1474 1474 1474 1474 1474 1473 1473 1473 1473 1473 1472 1472 1471 1471 1471 1470 1470 1469 1469
1488 1488 1488 1488 1488 1488 1487 1487 1486 1486 1486 1486 1485 1485 1484 1484 1484 1484 1483 1483 1483 1483 1483 1483 1483 1483 1482 1482 1482 1482 1482 1481 1481 1480 1479 1478 1478 1478 1477 1477 1477 1476 1476 1476 1476 1475 1475 1475 1475 1475 1475 1475 1475 1474 1474 1474 1474 1474 1473 1473 1473 1472 1472 1471 1471 1471 1470 1470 1469
1489 1489 1489 1489 1489 1488 1488 1488 1487 1487 1486 1486 1486 1486 1485 1485 1485 1485 1484 1484 1484 1484 1484 1484 1484 1484 1483 1483 1483 1483 1483 1482 1482 1481 1480 1479 1479 1479 1478 1478 1477 1477 1477 1476 1476 1476 1476 1476 1476 1476 1476 1475 1475 1475 1475 1475 1474 1474 1474 1474 1473 1473 1472 1472 1471 1471 1470 1470 1469
1490 1490 1490 1489 1489 1489 1489 1488 1488 1488 1487 1487 1487 1486 1486 1486 1486 1485 1485 1485 1485 1485 1484 1484 1484 1484 1484 1484 1484 1484 1483 1483 1482 1482 1481 1480 1480 1479 1479 1479 1478 1478 1477 1477 1477 1476 1476 1476 1476 1476 1476 1476 1476 1476 1476 1475 1475 1475 1474 1474 1474 1473 1473 1472 1472 1471 1471 1470 1469
1491 1490 1490 1490 1490 1489 1489 1489 1488 1488 1488 1487 1487 1487 1487 1486 1486 1486 1486 1486 1485 1485 1485 1485 1485 1485 1485 1485 1485 1484 1484 1484 1483 1483 1482 1481 1481 1480 1480 1479 1479 1479 1478 1478 1478 1477 1477 1477 1477 1477 1477 1477 1477 1476 1476 1476 1476 1475 1475 1475 1474 1474 1473 1472 1472 1471 1471 1470 1470
1491 1491 1491 1490 1490 1490 1490 1489 1489 1489 1488 1488 1488 1488 1487 1487 1487 1487 1486 1486 1486 1486 1486 1486 1486 1486 1486 1485 1485 1485 1484 1484 1484 1483 1483 1482 1482 1481 1481 1480 1480 1480 1479 1479 1478 1478 1478 1478 1478 1478 1477 1477 1477 1477 1477 1476 1476 1476 1475 1475 1474 1474 1473 1473 1472 1471 1471 1471 1470
1492 1491 1491 1491 1491 1491 1490 1490 1490 1489 1489 1489 1489 1489 1488 1488 1488 1488 1487 1487 1487 1487 1486 1486 1486 1486 1486 1486 1486 1485 1485 1485 1484 1484 1484 1483 1482 1482 1481 1481 1481 1481 1480 1480 1479 1479 1479 1479 1478 1478 1478 1478 1478 1477 1477 1477 1476 1476 1475 1475 1474 1474 1473 1473 1472 1471 1471 1471 1470
1492 1492 1492 1491 1491 1491 1491 1491 1491 1490 1490 1490 1490 1490 1489 1489 1489 1489 1488 1488 1488 1487 1487 1487 1487 1487 1486 1486 1486 1486 1486 1485 1485 1485 1484 1484 1483 1483 1482 1482 1482 1481 1481 1481 1480 1480 1480 1479 1479 1479 1478 1478 1478 1478 1477 1477 1476 1476 1475 1475 1474 1474 1473 1472 1472 1471 1471 1470 1470
1493 1493 1492 1492 1492 1492 1492 1491 1491 1491 1491 1491 1491 1490 1490 1490 1490 1489 1489 1489 1489 1488 1488 1488 1487 1487 1487 1487 1487 1486 1486 1486 1485 1485 1485 1484 1484 1483 1483 1482 1482 1482 1481 1481 1481 1480 1480 1480 1479 1479 1479 1478 1478 1478 1477 1477 1476 1476 1475 1475 1474 1473 1473 1472 1472 1471 1471 1470 1470
1493 1493 1493 1493 1492 1492 1492 1492 1492 1492 1491 1491 1491 1491 1491 1491 1490 1490 1490 1490 1489 1489 1489 1488 1488 1488 1488 1487 1487 1487 1487 1486 1486 1486 1485 1485 1484 1484 1483 1482 1482 1482 1481 1481 1481 1481 1480 1480 1479 1479 1479 1478 1478 1478 1477 1477 1476 1476 1475 1475 1474 1474 1473 1472 1472 1471 1471 1470 1470
1494 1493 1493 1493 1493 1493 1492 1492 1492 1492 1492 1491 1491 1491 1491 1491 1491 1490 1490 1490 1490 1489 1489 1489 1489 1488 1488 1488 1488 1488 1487 1487 1486 1486 1486 1485 1485 1484 1483 1482 1482 1482 1482 1481 1481 1481 1480 1480 1479 1479 1478 1478 1478 1477 1477 1477 1476 1476 1475 1475 1474 1474 1473 1473 1472 1472 1471 1471 1470
1494 1493 1493 1493 1493 1493 1492 1492 1492 1492 1492 1492 1491 1491 1491 1491 1491 1491 1491 1490 1490 1490 1489 1489 1489 1489 1488 1488 1488 1488 1487 1487 1486 1486 1485 1485 1485 1484 1483 1483 1483 1483 1483 1482 1482 1481 1481 1480 1479 1479 1478 1478 1478 1477 1477 1477 1476 1476 1475 1475 1475 1474 1473 1473 1472 1472 1471 1471 1470
1494 1493 1493 1493 1493 1493 1492 1492 1492 1492 1492 1492 1491 1491 1491 1491 1491 1491 1491 1491 1490 1490 1490 1489 1489 1489 1488 1488 1488 1487 1487 1486 1486 1486 1486 1485 1485 1485 1484 1484 1483 1484 1484 1483 1482 1481 1481 1480 1480 1479 1479 1478 1478 1478 1477 1477 1476 1476 1475 1475 1474 1474 1473 1473 1472 1471 1471 1470 1470
1493 1493 1493 1493 1493 1492 1492 1492 1492 1492 1492 1492 1491 1491 1491 1491 1491 1491 1491 1491 1491 1490 1490 1490 1489 1489 1489 1488 1488 1488 1487 1487 1486 1486 1486 1486 1486 1485 1485 1484 1484 1484 1485 1484 1482 1481 1481 1481 1480 1479 1479 1478 1478 1478 1477 1477 1476 1476 1475 1475 1474 1473 1473 1472 1472 1471 1471 1470 1469
1493 1493 1493 1493 1493 1492 1492 1492 1492 1492 1492 1492 1491 1491 1491 1491 1491 1491 1491 1491 1491 1491 1490 1490 1489 1489 1489 1488 1488 1488 1487 1487 1487 1486 1486 1486 1486 1485 1485 1484 1484 1484 1485 1484 1482 1481 1481 1480 1480 1479 1479 1478 1478 1478 1477 1477 1476 1476 1475 1474 1474 1473 1473 1472 1471 1471 1470 1470 1469
1493 1493 1493 1493 1493 1492 1492 1492 1492 1492 1492 1492 1491 1491 1491 1491 1491 1491 1491 1491 1491 1491 1490 1490 1489 1489 1489 1489 1488 1488 1487 1487 1487 1486 1486 1486 1486 1485 1485 1485 1484 1484 1484 1484 1483 1481 1481 1480 1480 1479 1479 1478 1478 1478 1477 1477 1476 1476 1475 1474 1474 1473 1473 1472 1471 1471 1470 1470 1469
1493 1493 1493 1493 1493 1492 1492 1492 1492 1492 1492 1492 1491 1491 1491 1491 1491 1491 1491 1491 1491 1491 1490 1490 1489 1489 1489 1489 1488 1488 1487 1487 1487 1486 1486 1486 1486 1485 1485 1485 1484 1484 1484 1485 1483 1482 1481 1480 1480 1479 1479 1479 1478 1478 1477 1477 1476 1476 1475 1474 1474 1473 1473 1472 1471 1471 1470 1470 1469
1493 1493 1492 1492 1492 1492 1492 1492 1492 1492 1491 1491 1491 1491 1491 1491 1491 1491 1491 1491 1491 1490 1490 1490 1489 1489 1489 1488 1488 1488 1487 1487 1487 1486 1486 1486 1486 1485 1485 1485 1484 1484 1484 1484 1484 1482 1481 1481 1480 1480 1479 1479 1479 1478 1477 1477 1476 1476 1475 1474 1474 1473 1472 1471 1471 1470 1470 1469 1468
1492 1492 1492 1492 1492 1492 1492 1491 1491 1491 1491 1491 1491 1491 1491 1491 1491 1491 1491 1490 1490 1490 1490 1489 1489 1489 1489 1488 1488 1488 1487 1487 1487 1486 1486 1486 1486 1486 1485 1485 1485 1484 1484 1484 1484 1483 1481 1481 1480 1480 1480 1479 1479 1478 1477 1476 1476 1475 1474 1474 1473 1472 1471 1471 1470 1469 1468 1467 1466
1492 1492 1492 1492 1491 1491 1491 1491 1491 1491 1491 1491 1491 1491 1491 1491 1491 1491 1490 1490 1490 1490 1490 1489 1489 1489 1489 1488 1488 1488 1487 1487 1487 1486 1486 1486 1486 1486 1485 1485 1485 1484 1484 1483 1485 1483 1481 1481 1480 1480 1480 1479 1478 1478 1477 1476 1475 1474 1474 1473 1472 1471 1471 1470 1469 1468 1467 1466 1466
1492 1492 1491 1491 1491 1491 1491 1491 1491 1491 1491 1491 1491 1491 1491 1491 1491 1491 1490 1490 1490 1490 1490 1489 1489 1489 1489 1488 1488 1488 1487 1487 1487 1486 1486 1486 1486 1486 1486 1485 1485 1485 1484 1483 1485 1484 1481 1481 1480 1479 1479 1478 1478 1477 1476 1475 1474 1474 1473 1472 1471 1471 1470 1470 1469 1468 1467 1467 1466
1492 1491 1491 1491 1491 1491 1491 1491 1491 1491 1491 1491 1491 1491 1491 1491 1491 1491 1491 1490 1490 1490 1490 1489 1489 1489 1489 1488 1488 1488 1487 1487 1487 1486 1486 1486 1486 1486 1485 1485 1485 1485 1483 1482 1484 1484 1482 1480 1479 1479 1478 1478 1477 1476 1475 1475 1474 1473 1473 1472 1471 1471 1471 1470 1469 1469 1468 1467 1466
1492 1492 1491 1491 1491 1491 1491 1491 1491 1491 1491 1491 1491 1491 1491 1491 1491 1491 1491 1490 1490 1490 1490 1489 1489 1489 1488 1488 1488 1488 1487 1487 1487 1486 1486 1486 1486 1485 1485 1485 1485 1484 1483 1482 1484 1484 1482 1481 1479 1478 1478 1477 1476 1476 1475 1475 1474 1474 1473 1472 1472 1471 1471 1471 1470 1469 1469 1468 1467
1492 1492 1491 1491 1491 1491 1491 1491 1491 1491 1491 1491 1491 1491 1491 1491 1491 1491 1490 1490 1490 1490 1489 1489 1489 1489 1488 1488 1488 1487 1487 1487 1486 1486 1486 1486 1485 1485 1485 1484 1484 1483 1482 1482 1483 1484 1483 1481 1480 1478 1477 1477 1477 1476 1476 1475 1475 1474 1474 1473 1472 1472 1471 1471 1471 1470 1469 1468 1468
1492 1492 1491 1491 1491 1491 1491 1491 1491 1491 1491 1491 1491 1491 1491 1491 1491 1490 1490 1490 1490 1490 1489 1489 1489 1488 1488 1488 1488 1487 1487 1486 1486 1486 1486 1485 1485 1484 1484 1484 1483 1483 1482 1481 1483 1483 1482 1481 1480 1479 1478 1477 1477 1476 1476 1476 1475 1474 1474 1473 1473 1472 1472 1471 1471 1470 1469 1469 1468
1492 1491 1491 1491 1491 1491 1491 1491 1491 1491 1491 1491 1491 1491 1491 1491 1490 1490 1490 1490 1490 1490 1489 1489 1489 1488 1488 1488 1487 1487 1486 1486 1486 1486 1485 1485 1484 1484 1483 1483 1483 1482 1482 1481 1482 1482 1482 1481 1480 1479 1478 1477 1477 1477 1476 1476 1475 1475 1474 1473 1473 1472 1472 1471 1471 1470 1469 1468 1468
1491 1491 1491 1491 1491 1491 1491 1491 1491 1491 1491 1491 1491 1491 1491 1491 1490 1490 1490 1490 1490 1489 1489 1489 1488 1488 1487 1487 1487 1486 1486 1486 1485 1485 1485 1484 1483 1483 1483 1483 1483 1482 1482 1481 1481 1482 1481 1481 1480 1480 1479 1478 1477 1477 1476 1476 1475 1475 1474 1473 1473 1472 1471 1471 1470 1469 1469 1468 1467
Wind_Speed
10 11 11 10 10 8 7 7 6 6 6 6 6 5 4 3 2 3 5 6 7 8 9 9 10 10 10 10 10 10 10 10 9 9 8 8 8 8 9 9 10 10 11 11 12 14 15 16 17 18 19 20 20 20 20 20 20 20 20 19 19 20 20 19 20 20 20 21 22
6 7 8 8 7 6 5 5 4 4 4 3 3 3 2 1 2 3 5 6 7 8 8 7 7 7 7 7 7 8 8 8 8 8 8 7 7 7 6 6 6 6 6 7 8 9 10 11 12 13 14 15 16 16 16 17 18 17 17 18 19 19 20 20 20 20 20 21 21
6 6 6 7 7 7 7 7 7 7 6 6 5 5 4 4 4 5 5 6 6 6 6 6 6 6 7 7 8 8 8 9 9 9 9 9 9 8 8 8 7 7 7 7 7 7 7 8 9 10 11 12 12 12 13 14 15 15 16 16 17 18 18 19 19 19 20 20 20
9 9 9 9 9 9 9 9 9 8 8 7 6 6 6 6 6 7 7 7 7 7 7 7 7 8 8 8 9 9 9 9 9 9 10 10 10 10 9 9 9 9 9 9 8 8 7 7 7 8 9 9 10 10 11 11 12 13 13 14 14 15 16 16 16 17 17 18 18
9 9 9 10 10 10 10 10 9 9 9 8 7 7 7 7 8 8 8 8 7 7 7 7 7 7 8 8 7 8 8 8 9 9 9 9 9 10 10 9 9 9 9 9 9 8 8 7 7 6 7 7 7 7 8 9 9 10 10 10 10 11 11 12 13 13 14 14 15
10 10 10 10 10 10 10 9 9 9 9 8 8 8 8 8 8 7 7 7 7 7 7 6 6 6 6 6 5 5 5 6 7 7 7 8 8 8 8 8 7 7 8 8 8 8 7 7 6 5 5 5 5 5 5 6 6 6 6 6 6 7 7 8 8 9 9 10 11
10 10 10 10 9 10 10 10 10 10 9 9 8 8 8 8 7 7 7 7 7 7 6 6 5 5 4 4 3 3 3 4 4 4 5 5 5 5 5 5 5 5 5 5 6 6 6 5 4 4 3 3 3 3 4 4 4 4 4 4 4 5 5 5 6 6 7 7 9
10 10 10 10 9 10 10 10 10 10 10 9 9 8 8 8 8 8 8 8 8 7 7 6 6 5 4 4 4 4 5 5 5 4 4 3 3 3 3 3 3 3 3 3 3 3 4 4 3 3 3 3 3 3 4 4 4 5 5 5 5 5 5 5 5 6 6 8 9
9 9 9 9 9 9 10 10 10 10 10 9 9 9 9 9 9 9 9 9 9 8 8 7 7 6 5 5 5 6 7 7 8 7 7 7 6 6 5 4 4 3 3 3 3 3 3 3 3 3 3 3 3 3 4 4 4 5 5 5 4 4 3 3 3 4 5 6 8
9 9 9 9 9 8 8 9 9 9 9 9 10 10 9 9 9 9 9 9 9 9 8 8 7 7 6 5 5 6 7 8 9 10 10 10 10 9 8 7 6 6 6 5 5 5 5 5 5 5 4 4 4 4 4 4 4 4 4 3 3 2 2 3 3 3 3 3 4
10 10 9 9 8 8 8 8 8 8 9 10 10 10 10 10 10 10 9 9 9 9 9 8 8 7 6 6 6 6 7 8 9 11 12 12 12 12 11 10 9 9 8 8 8 8 8 8 8 8 7 6 6 5 5 4 4 3 3 3 3 4 5 5 6 6 6 6 6
10 10 9 9 9 8 8 8 9 9 10 10 10 11 11 11 11 10 10 9 9 9 9 8 8 7 7 7 7 7 7 8 10 11 12 13 14 13 13 13 12 12 11 11 11 10 10 11 10 10 9 8 8 7 7 6 6 6 6 6 6 7 8 8 9 9 9 9 8
10 10 9 9 9 9 9 9 9 10 10 10 10 11 11 11 11 11 10 9 9 9 9 9 8 8 8 8 8 8 8 8 9 11 12 13 14 14 14 14 14 14 14 13 13 12 12 12 12 12 11 11 10 10 10 10 9 10 10 10 10 10 11 11 12 12 12 12 11
10 9 9 9 9 9 9 9 9 10 10 10 10 11 11 11 11 10 10 10 10 10 10 9 9 9 9 9 8 8 8 9 10 11 13 14 14 15 15 15 15 15 15 15 14 14 14 14 14 14 14 14 14 13 13 12 13 13 13 13 13 14 14 14 14 14 14 14 13
9 9 9 9 8 8 8 9 9 10 10 10 10 10 10 10 10 10 10 10 10 10 10 9 9 9 9 9 8 8 8 9 10 12 13 14 15 15 15 15 15 16 16 16 16 16 16 16 16 16 16 16 16 15 15 15 15 15 15 15 15 15 16 16 16 15 15 15 15
9 9 9 9 8 8 8 9 9 9 10 10 10 10 10 10 10 10 10 10 10 10 9 9 9 9 9 8 8 8 8 9 10 12 13 15 15 15 15 15 16 16 16 16 16 17 17 17 17 17 17 17 16 16 16 16 16 16 16 16 16 16 16 16 16 16 16 16 16
9 9 9 9 9 9 9 9 9 9 9 10 10 10 10 10 10 10 10 10 9 9 9 9 8 8 8 8 8 8 8 8 9 11 12 14 14 15 15 15 15 16 16 16 16 17 17 17 17 16 16 16 16 16 16 16 16 16 16 16 16 16 16 16 16 16 16 16 16
9 9 9 9 9 9 9 9 9 9 9 10 10 10 10 10 10 10 10 9 9 9 8 8 8 7 7 7 7 8 8 8 9 10 11 13 14 14 15 15 15 15 16 16 16 16 16 16 16 15 15 15 15 15 15 15 15 15 15 16 16 16 16 16 16 16 16 16 16
9 9 9 9 10 10 10 10 10 10 10 10 10 10 10 10 10 10 10 9 9 8 8 7 7 7 7 7 8 8 9 9 9 10 11 12 13 14 14 14 14 14 15 15 15 15 15 15 14 14 14 14 14 14 14 14 14 14 15 15 15 15 15 15 15 16 16 16 16
8 8 9 9 9 9 9 10 10 10 10 10 10 10 10 10 10 10 9 9 9 8 8 7 7 7 7 7 8 8 9 9 9 9 10 10 12 13 13 13 13 13 14 14 14 14 14 14 13 13 13 13 13 13 13 13 13 14 14 14 15 15 15 15 15 15 15 15 15
7 7 8 8 8 8 9 9 9 9 9 9 9 9 9 9 9 9 9 9 8 8 7 7 7 7 7 7 7 7 7 8 8 8 8 9 10 12 12 13 12 12 13 13 13 13 13 13 13 12 12 12 12 12 12 13 13 13 14 14 14 15 15 15 15 15 15 15 15
6 6 7 7 7 7 7 8 8 8 8 8 8 8 8 8 8 8 8 8 8 7 7 7 7 6 6 6 6 6 6 6 6 7 7 8 9 11 12 12 12 12 12 13 13 12 12 12 12 12 11 11 11 11 12 12 13 13 14 14 14 15 15 15 15 15 16 16 16
5 5 5 5 6 6 6 6 6 6 6 6 6 6 6 7 7 7 8 8 7 7 7 7 7 7 7 6 5 5 5 5 5 5 5 6 7 9 11 12 13 13 13 13 13 13 12 12 11 11 11 11 11 11 11 12 12 13 13 14 14 14 15 15 15 16 16 16 16
4 4 4 4 4 4 4 5 5 5 5 5 5 5 5 6 6 7 7 7 7 7 7 7 8 8 8 7 7 6 5 5 6 6 6 6 7 9 11 13 14 14 14 14 13 13 12 12 12 12 11 11 11 11 11 12 12 13 13 13 14 14 15 15 15 15 16 16 16
4 3 3 3 3 3 3 3 4 4 4 4 4 5 5 5 5 6 6 6 6 6 7 7 7 8 8 8 8 7 7 8 9 10 10 10 10 11 13 14 15 14 14 14 13 13 13 13 12 12 12 12 11 11 12 12 12 12 13 13 13 14 14 14 15 15 15 15 15
3 3 3 3 3 3 3 3 3 3 3 3 4 4 4 5 5 5 5 5 5 6 6 6 7 7 7 7 7 7 8 10 11 12 13 13 14 15 15 16 16 15 14 13 13 13 13 13 12 12 12 12 11 11 11 12 12 12 13 13 13 13 14 14 15 15 15 15 15
3 2 2 2 2 2 2 2 2 3 3 3 3 4 4 4 4 5 5 5 5 5 6 6 6 6 7 7 6 7 7 9 10 11 12 12 13 15 16 17 17 15 14 12 12 12 13 12 12 12 12 12 11 11 11 11 12 12 13 13 13 14 14 14 15 15 15 15 15
2 2 2 2 2 2 2 2 2 2 2 2 3 3 3 4 4 4 4 4 4 5 5 5 6 6 6 6 6 6 7 8 8 9 9 10 11 12 14 16 16 15 13 11 11 12 12 12 12 12 11 11 11 11 10 11 11 12 13 13 14 14 14 15 15 15 15 15 15
3 2 2 1 1 1 1 1 1 1 2 2 2 3 3 4 4 4 4 4 4 4 4 5 5 6 6 6 6 6 7 7 6 6 6 7 8 10 12 14 15 15 13 11 12 12 12 12 12 12 12 11 11 10 10 10 11 12 12 13 14 14 15 15 15 15 15 15 15
3 2 2 1 1 1 1 0 0 1 1 2 2 2 3 3 4 4 4 4 4 4 4 4 5 5 5 5 6 6 6 6 6 5 5 5 6 8 10 12 13 14 14 12 13 13 13 12 12 12 12 11 11 10 10 10 11 12 12 13 13 14 14 14 15 15 15 15 15
3 2 2 1 1 1 1 0 0 0 1 2 2 3 3 4 4 4 4 4 4 4 4 4 5 5 5 5 5 5 5 5 5 5 5 5 5 7 8 10 12 13 14 13 13 13 13 12 12 12 12 11 10 10 10 10 11 11 12 13 13 14 14 14 15 15 15 16 16
3 3 2 1 1 1 1 0 0 0 1 2 2 3 3 3 4 4 4 4 4 4 4 4 4 4 4 5 5 5 5 5 5 5 5 5 5 6 7 8 10 12 13 14 14 13 12 12 12 12 11 11 10 9 9 10 11 11 12 13 13 14 14 15 16 16 17 18 18
3 3 2 2 1 1 1 1 1 1 1 2 3 3 3 3 3 3 4 4 4 4 4 4 4 4 4 4 5 5 5 6 5 5 5 5 5 5 5 6 8 10 12 14 14 13 12 12 11 11 11 10 9 9 10 11 12 12 13 14 15 15 16 17 18 18 19 20 21
4 3 3 2 2 2 2 2 1 1 2 2 3 3 3 3 3 3 4 4 4 4 4 4 3 3 4 4 5 5 5 5 5 5 4 4 4 4 4 5 6 8 11 14 14 13 13 12 12 12 12 11 10 11 12 13 14 14 15 16 17 17 18 19 19 20 21 21 22
4 4 3 3 3 3 2 2 2 2 2 2 2 2 2 3 3 3 3 3 3 3 3 3 3 3 3 4 4 5 5 4 4 4 3 3 3 2 2 3 4 6 10 14 13 13 14 14 13 13 13 13 13 13 14 15 15 16 16 17 17 18 18 19 19 20 20 20 21
4 4 3 3 3 3 2 2 2 2 2 2 2 2 2 2 2 2 2 2 2 2 2 2 3 3 3 3 4 4 4 3 2 2 2 2 1 1 1 1 3 6 10 14 13 12 13 14 14 14 14 14 15 15 15 16 16 16 16 17 17 17 17 18 18 18 18 19 19
3 3 3 3 3 2 2 2 2 1 1 1 1 1 2 2 2 2 2 2 2 2 2 2 2 2 2 2 3 3 3 2 2 1 1 0 1 2 2 1 2 6 10 14 13 11 11 13 14 14 15 15 15 15 15 15 15 15 15 15 15 16 16 16 16 16 16 17 17
2 2 2 2 2 2 2 2 1 1 1 1 1 1 1 1 1 2 2 2 2 2 2 2 2 2 2 2 1 1 2 2 2 2 2 2 2 2 3 2 2 6 10 13 13 11 10 11 13 14 14 14 14 15 14 14 14 13 13 13 13 14 14 14 14 14 14 15 15
2 2 2 2 2 2 2 1 1 1 1 1 0 1 1 1 1 1 2 2 2 2 2 2 1 1 1 1 1 1 1 2 2 2 3 3 3 3 2 2 3 6 9 11 12 11 10 10 12 13 13 13 13 13 13 13 12 12 12 12 12 12 13 13 13 13 14 14 15
2 2 2 2 2 2 1 1 1 1 0 0 0 0 0 1 1 1 1 1 1 1 1 1 1 1 1 1 2 2 3 3 3 3 3 4 4 5 5 4 4 6 8 9 10 10 10 9 10 12 12 11 11 12 12 12 12 12 11 11 12 12 12 13 13 13 14 14 15
2 2 2 2 2 2 1 1 1 0 0 0 0 0 0 0 0 0 0 0 0 0 0 1 1 1 1 2 3 3 3 3 4 4 5 6 7 7 7 6 5 5 6 7 9 9 9 8 9 10 11 11 10 10 11 11 11 12 12 12 12 12 13 13 14 14 14 15 15
Wind_Direction
184 185 186 189 191 194 200 208 218 226 229 229 228 226 227 237 263 290 299 302 302 299 295 292 289 288 289 290 290 290 289 288 289 290 290 290 287 283 278 272 267 263 261 260 259 258 258 257 257 257 256 257 257 258 259 260 260 260 261 261 262 263 264 264 264 264 265 266 267
167 171 173 173 174 178 182 186 185 178 167 153 139 124 108 70 8 340 330 326 321 316 313 311 307 308 311 313 313 314 317 319 322 324 325 323 319 316 313 307 299 291 285 282 277 273 269 266 264 263 263 262 262 264 264 263 262 263 263 263 263 262 262 262 261 261 260 261 262
115 123 128 129 128 127 124 120 116 111 105 98 91 78 62 46 31 18 6 356 348 346 347 349 348 348 348 347 346 346 346 346 345 346 344 340 338 339 339 338 334 328 323 318 311 303 294 285 280 277 277 276 276 277 275 269 266 266 266 266 264 264 262 261 260 260 260 259 261
88 93 96 98 99 100 99 97 93 88 83 78 72 63 55 47 40 33 26 21 19 17 15 12 9 6 4 0 359 359 359 358 356 354 351 348 347 348 350 350 346 342 337 333 329 324 317 308 298 292 289 288 288 286 281 275 272 270 268 267 267 266 265 264 263 262 262 262 263
79 82 85 87 88 89 88 87 83 78 73 69 66 63 59 53 47 41 37 34 34 32 28 22 18 15 12 9 7 7 7 5 1 358 355 352 351 352 355 356 355 353 348 345 343 341 338 330 322 312 304 299 295 288 282 279 276 275 273 272 270 269 269 268 267 267 268 269 270
77 79 80 82 83 84 85 85 84 81 76 72 71 69 66 62 57 55 55 55 51 48 44 41 36 30 25 21 21 22 20 15 8 3 358 355 352 355 359 3 6 7 3 360 358 357 353 348 340 332 322 313 304 297 291 287 282 281 281 279 278 277 276 275 275 276 279 281 281
79 82 84 85 86 88 90 90 89 88 86 84 84 82 79 79 80 82 80 77 72 68 67 65 61 56 55 54 57 59 57 49 34 22 14 8 5 3 5 10 19 24 23 17 12 9 5 0 354 346 340 331 323 322 318 309 303 299 298 298 296 294 293 291 289 288 288 286 283
86 88 91 93 95 98 99 100 100 101 101 100 99 97 96 96 99 98 95 91 88 84 83 85 84 86 89 98 105 106 103 98 91 83 75 68 62 52 42 39 47 55 56 47 38 32 23 15 13 13 12 1 354 347 340 332 326 323 322 321 317 310 302 297 293 287 278 273 271
87 89 92 95 99 101 103 105 107 108 109 108 106 103 101 102 101 100 98 95 92 90 90 91 91 94 99 106 113 116 115 111 107 103 101 100 98 96 94 92 96 101 104 101 87 75 62 47 39 34 26 13 4 359 356 350 346 339 334 333 331 324 315 310 307 295 280 272 272
76 79 82 85 89 92 97 101 105 106 106 106 105 103 102 102 99 95 92 90 90 91 91 90 90 92 95 99 108 114 116 113 109 107 104 101 98 95 94 93 94 98 101 102 99 92 86 78 74 69 61 49 44 38 31 20 10 358 352 355 5 26 42 36 26 13 352 331 314
65 67 70 73 76 80 86 92 96 98 99 100 100 101 100 98 94 89 88 88 91 92 91 90 90 90 89 91 96 104 109 112 111 110 107 103 98 95 91 88 87 87 89 91 90 89 86 83 81 81 79 75 71 66 58 48 37 32 39 47 52 56 54 48 42 37 30 21 10
61 63 65 67 70 73 77 82 85 87 89 91 93 94 94 92 89 87 87 90 91 91 91 93 92 90 89 89 91 96 102 109 111 111 107 103 99 96 93 90 87 85 84 83 82 82 81 80 79 78 78 77 74 70 66 62 59 59 61 62 62 59 55 51 48 45 41 36 28
58 60 61 62 63 66 69 73 76 79 81 83 86 87 88 88 87 86 87 87 87 88 90 92 91 90 88 88 90 94 101 107 110 110 107 103 100 98 94 91 88 85 82 81 79 78 78 78 77 75 74 74 72 70 69 68 67 66 66 66 65 63 60 57 56 54 51 46 40
54 56 58 58 59 61 64 69 72 74 76 77 78 79 81 81 82 82 80 79 79 79 81 83 84 84 84 85 87 93 99 106 110 110 108 105 101 98 95 92 89 85 83 81 79 78 78 78 77 76 75 75 74 73 72 72 71 71 70 69 68 66 64 62 60 58 54 51 47
54 57 59 60 62 63 66 68 70 71 71 71 71 71 72 73 74 74 72 70 70 69 69 71 73 75 77 81 85 91 99 105 109 109 107 104 100 97 94 91 89 86 83 82 80 79 78 77 77 77 76 76 76 75 74 73 72 71 70 69 67 66 64 62 60 57 54 52 49
57 60 62 64 65 67 69 69 69 69 68 67 67 66 66 66 67 68 67 66 65 64 63 63 65 68 72 78 84 90 96 101 104 104 103 101 98 94 91 89 86 84 82 81 79 78 77 76 75 75 74 74 74 73 72 71 70 68 67 66 64 62 61 60 58 56 54 52 49
60 62 64 65 66 67 68 68 68 68 67 66 66 65 65 64 65 66 66 66 66 64 64 63 64 66 70 74 80 85 89 93 95 96 96 95 93 90 87 85 83 82 81 79 78 76 75 74 73 72 71 71 71 70 69 67 66 65 63 62 60 59 57 56 55 53 52 49 47
59 60 62 63 64 64 64 64 65 65 65 65 65 65 65 65 65 66 66 67 67 66 65 68 69 71 73 76 79 81 81 83 84 86 88 89 89 87 85 83 81 80 79 77 76 75 74 73 71 70 69 68 67 67 65 64 63 62 61 59 57 56 54 52 51 50 48 47 45
57 58 59 60 60 60 59 59 59 59 59 60 61 61 62 63 63 64 65 66 67 66 66 68 72 76 78 80 80 80 78 77 77 79 81 84 85 85 83 81 80 79 78 76 75 73 73 71 70 68 67 66 64 64 63 62 60 59 58 56 55 53 51 49 48 46 45 43 42
56 57 58 59 59 58 57 56 55 55 55 55 56 57 58 60 61 63 64 65 67 67 67 68 72 77 80 81 80 79 77 76 76 78 80 82 84 84 82 80 79 78 77 76 74 73 72 71 70 68 66 63 62 61 59 58 57 56 54 53 51 50 48 46 44 43 41 40 39
57 59 60 61 60 59 58 57 57 56 55 55 56 58 60 62 64 65 67 68 68 68 68 69 72 77 81 82 80 77 75 75 76 78 82 85 86 86 84 80 78 77 77 76 74 73 72 71 70 68 65 62 59 57 55 54 52 51 50 48 47 45 44 42 40 39 37 36 35
58 59 61 61 61 61 61 61 61 60 60 60 61 63 65 67 69 71 71 72 72 71 71 72 75 79 81 82 78 73 71 71 74 78 82 87 89 90 88 84 80 77 76 75 75 74 72 71 70 68 65 62 58 55 52 50 49 47 45 43 42 41 39 38 36 34 33 32 30
57 59 60 62 63 64 64 65 66 66 66 66 68 70 71 73 74 75 75 75 76 76 77 77 80 82 83 81 76 70 67 72 78 83 89 93 95 95 92 87 80 73 69 68 69 70 71 70 68 66 64 61 56 52 49 48 46 44 42 40 38 37 35 34 32 31 29 28 27
55 57 60 61 63 64 67 68 69 70 70 71 73 74 75 75 76 77 78 79 80 81 82 82 84 85 86 85 81 78 77 81 89 93 95 97 97 93 88 80 70 62 56 55 55 58 62 64 63 62 60 57 53 48 46 44 43 42 40 38 36 34 33 31 30 28 27 25 24
51 53 55 58 59 62 63 63 64 67 68 71 73 74 75 76 76 77 78 80 82 83 84 84 84 85 86 86 85 83 82 82 83 82 81 80 79 77 74 69 60 49 41 41 43 45 49 54 57 56 54 51 47 43 40 39 39 38 38 36 35 33 31 29 28 27 25 24 23
43 45 47 48 50 51 52 53 55 57 60 63 66 70 72 75 76 77 78 79 81 82 82 81 80 80 81 81 80 77 73 70 69 68 67 67 68 67 67 64 58 44 30 25 33 40 43 47 50 52 50 47 43 38 35 34 34 34 34 34 32 31 30 28 26 25 24 23 22
30 33 36 36 39 42 43 44 47 50 53 56 59 64 69 74 78 80 81 81 81 81 80 78 77 75 74 72 69 65 61 58 58 58 59 60 63 65 66 65 61 49 30 14 24 36 43 45 48 49 48 45 41 35 32 30 31 31 31 31 30 29 28 27 25 24 23 22 20
10 16 19 23 28 30 33 38 43 49 54 56 58 62 67 72 79 83 86 87 85 84 82 80 78 75 71 67 64 62 59 57 56 55 55 55 57 60 63 64 63 55 37 14 21 32 40 44 46 47 46 43 39 33 30 28 29 30 29 29 28 27 26 26 25 24 22 20 19
353 356 0 2 7 12 21 31 46 57 64 67 67 66 66 70 75 83 89 94 95 92 89 85 80 74 69 64 63 62 60 58 57 55 54 51 51 51 54 57 59 55 41 18 20 28 35 39 43 44 43 40 36 31 28 27 29 29 29 28 27 26 26 25 25 24 23 21 19
343 344 341 341 338 341 345 8 55 80 86 85 80 72 67 65 68 75 85 95 101 102 96 88 81 74 67 63 62 60 58 56 54 51 48 46 45 43 44 46 51 52 43 23 19 23 29 34 37 39 39 37 33 29 27 27 29 30 30 28 27 26 25 25 25 24 24 22 21
339 338 333 330 321 309 298 277 179 110 100 92 82 73 64 59 57 63 72 86 98 99 93 86 78 72 66 60 58 55 52 50 46 42 39 36 38 37 35 33 38 45 43 30 19 18 24 31 35 36 36 34 31 28 27 29 31 32 32 30 29 28 26 25 25 25 24 23 21
339 338 335 333 332 320 303 286 216 99 85 79 70 62 55 51 48 50 58 69 79 84 83 79 73 67 61 56 52 49 45 42 38 33 30 28 31 33 29 23 25 36 42 37 21 15 19 30 35 37 35 34 31 29 30 32 34 34 33 32 31 29 28 26 25 24 23 22 20
342 343 344 348 350 350 347 356 21 48 57 58 57 51 45 40 39 41 45 51 59 65 68 69 65 60 56 54 52 48 43 38 34 30 26 24 25 27 23 17 17 28 40 42 23 11 13 27 35 39 38 35 32 31 33 35 36 35 34 32 31 29 27 25 24 22 21 19 18
347 349 352 357 0 5 7 10 18 30 40 45 45 42 38 35 34 35 37 42 47 54 57 59 58 54 52 52 53 51 46 39 33 28 22 18 18 19 18 14 15 25 39 46 26 9 5 18 29 37 37 33 31 31 33 34 34 33 32 31 29 27 25 24 23 21 19 17 16
351 355 359 3 5 7 10 14 18 24 30 38 36 35 32 31 31 32 33 36 42 49 53 53 50 46 45 46 47 49 47 42 35 27 20 13 9 7 7 8 15 28 43 50 33 9 358 5 18 29 32 29 28 28 30 32 32 32 30 28 27 26 25 23 22 20 18 16 14
355 359 4 6 9 10 12 13 15 22 27 31 30 28 26 25 27 29 29 33 37 45 52 53 46 39 36 40 44 45 46 46 44 35 23 10 347 307 294 336 15 35 49 55 41 15 356 357 7 20 27 25 25 26 28 29 30 30 28 26 25 24 23 23 21 19 16 14 12
359 3 6 10 13 14 14 14 17 20 26 28 22 19 17 17 20 22 24 27 32 41 50 50 44 38 35 40 46 48 50 54 67 85 101 104 208 216 217 223 28 41 51 57 48 25 1 355 3 14 21 22 23 24 25 27 28 28 27 24 22 21 21 21 20 18 15 12 11
1 6 11 16 19 20 20 17 18 22 25 23 17 9 3 7 10 14 21 25 27 35 43 45 43 39 40 49 60 68 70 76 98 130 147 154 162 180 190 189 55 41 46 54 49 32 10 3 5 10 16 19 21 21 22 24 26 27 25 23 20 19 18 17 17 15 13 11 9
8 12 18 22 25 25 25 21 17 17 16 16 6 355 344 350 358 7 15 22 25 34 43 48 50 55 59 80 119 132 124 113 115 127 135 131 119 114 117 107 54 38 38 44 44 34 19 13 11 10 12 16 19 19 18 20 23 24 22 20 18 16 14 13 12 11 10 8 6
13 16 21 23 28 27 28 24 18 17 1 2 349 333 333 335 344 357 9 16 24 36 53 75 94 100 113 137 157 159 150 130 117 110 104 93 80 70 64 55 40 28 27 33 37 32 23 18 15 10 8 11 17 17 15 16 19 20 20 17 15 12 11 9 8 7 6 5 3
9 13 20 22 25 26 22 17 5 341 222 215 179 178 178 246 278 295 308 319 351 33 85 119 128 132 139 146 151 149 139 121 99 83 71 64 58 53 50 42 25 11 10 18 28 30 27 22 21 14 7 6 12 14 13 12 14 17 18 16 12 10 7 6 4 3 2 1 360